timestamp,wind_vec_avg,wind_scalar_avg,wind_dir,wind_dir_sd,t,tmax,time_tmax,tmin,time_tmin,tdew_avg,tdew_max,time_tdew_max,tdew_min,time_tdew_min,rad_tot,rain1,rain2
2012-01-26 03:29:59+00:00,0.0,999.0,0.0,0.0,21.01,21.12,999,20.84,999,3.919,4.674,999,3.304,999,0.0,0.0,999.0
2012-01-27 03:29:59+00:00,0.0,999.0,0.0,0.0,20.5,20.62,999,20.37,999,2.462,2.99,999,2.272,999,0.0,0.0,999.0
2012-03-04 03:29:59+00:00,38.65,999.0,137.4,5.712,0.909,1.121,999,0.596,999,0.191,0.389,999,-0.028,999,2e-05,0.0,999.0
2012-03-05 03:29:59+00:00,23.36,999.0,214.3,42.2,2.538,4.664,999,0.282,999,1.5,4.269,999,-0.15,999,6.486,0.0,999.0
2012-03-06 03:29:59+00:00,20.25,999.0,23.79,51.2,-0.073,2.709,999,-2.767,999,-1.659,2.023,999,-6.116,999,5.9313,0.0,999.0
2012-03-07 03:29:59+00:00,29.75,999.0,48.63,26.95,-0.217,1.802,999,-1.994,999,-2.371,-1.698,999,-3.173,999,3.0838,0.0,999.0
2012-03-08 03:29:59+00:00,25.14,999.0,318.7,35.57,-3.746,-1.723,999,-6.239,999,-4.653,-2.282,999,-7.3,999,14.392,0.0,999.0
2012-03-09 03:29:59+00:00,24.79,999.0,226.3,22.42,1.653,4.832,999,-3.163,999,1.0,3.747,999,-3.799,999,3.2379,0.0,999.0
2012-03-10 03:29:59+00:00,32.51,999.0,234.6,24.43,4.033,7.94,999,-0.658,999,2.969,5.353,999,-1.888,999,7.0666,0.0,999.0
2012-03-11 03:29:59+00:00,12.82,999.0,338.1,21.21,-0.961,2.256,999,-4.652,999,-4.835,-1.782,999,-8.4,999,9.2216,0.0,999.0
2012-03-12 03:29:59+00:00,19.19,999.0,312.1,29.64,-3.185,0.46,999,-6.941,999,-9.85,-7.7,999,-12.23,999,14.589,0.0,999.0
2012-03-13 03:29:59+00:00,24.08,999.0,254.1,22.47,0.098,2.776,999,-3.093,999,-2.365,0.418,999,-8.04,999,5.5856,0.0,999.0
2012-03-14 03:29:59+00:00,18.85,999.0,307.5,34.95,-3.159,-0.286,999,-8.45,999,-10.31,-2.744,999,-14.65,999,14.769,0.0,999.0
2012-03-15 03:29:59+00:00,20.38,999.0,67.93,29.69,-2.921,-0.211,999,-6.502,999,-9.72,-5.863,999,-13.65,999,15.302,0.0,999.0
2012-03-16 03:29:59+00:00,35.28,999.0,74.3,10.93,-2.17,0.517,999,-4.836,999,-7.28,-5.156,999,-10.06,999,5.4489,0.0,999.0
2012-03-17 03:29:59+00:00,25.56,999.0,29.1,31.56,0.59,2.138,999,-1.088,999,-1.327,0.922,999,-5.384,999,3.8905,0.0,999.0
2012-03-18 03:29:59+00:00,15.86,999.0,296.8,21.37,1.94,8.69,999,-1.036,999,-1.87,0.498,999,-8.51,999,9.3155,0.0,999.0
2012-03-19 03:29:59+00:00,18.5,999.0,258.9,35.06,1.81,4.743,999,-2.71,999,-0.746,1.486,999,-4.146,999,11.488,0.0,999.0
2012-03-20 03:29:59+00:00,20.61,999.0,319.0,37.64,2.388,7.02,999,-2.29,999,-2.894,2.83,999,-7.56,999,11.448,0.0,999.0
2012-03-21 03:29:59+00:00,16.04,999.0,266.0,43.78,0.724,2.625,999,-2.827,999,-1.517,1.182,999,-6.108,999,2.2173,0.0,999.0
2012-03-22 03:29:59+00:00,10.08,999.0,311.9,41.05,0.364,5.087,999,-2.156,999,-4.4,-1.087,999,-9.97,999,6.7173,0.0,999.0
2012-03-23 03:29:59+00:00,6.016,999.0,231.6,58.71,1.58,4.082,999,-1.608,999,0.053,3.22,999,-3.823,999,4.5519,0.0,999.0
2012-03-24 03:29:59+00:00,23.81,999.0,307.0,17.41,2.724,7.13,999,-2.257,999,-3.532,3.311,999,-7.61,999,17.371,0.0,999.0
2012-03-25 03:29:59+00:00,28.0,999.0,312.3,17.03,-1.654,3.583,999,-5.972,999,-8.85,-5.905,999,-12.98,999,17.534,0.0,999.0
2012-03-26 03:29:59+00:00,18.65,999.0,303.9,29.97,-2.238,1.878,999,-5.973,999,-9.99,-6.702,999,-13.1,999,18.008,0.0,999.0
2012-03-27 03:29:59+00:00,25.15,999.0,111.7,72.2,0.221,2.088,999,-3.963,999,-2.012,1.905,999,-8.25,999,5.9828,0.0,999.0
2012-03-28 03:29:59+00:00,11.82,999.0,211.0,70.7,2.15,6.746,999,0.431,999,1.22,5.712,999,-1.369,999,7.9125,0.0,999.0
2012-03-29 03:29:59+00:00,10.0,999.0,157.3,62.78,0.799,2.97,999,-1.027,999,-0.798,0.339,999,-2.853,999,11.892,0.0,999.0
2012-03-30 03:29:59+00:00,15.62,999.0,265.9,24.86,0.217,4.929,999,-2.361,999,-3.165,0.713,999,-5.556,999,13.127,0.0,999.0
2012-03-31 03:29:59+00:00,10.84,999.0,291.6,80.8,-0.066,15.7,999,-1.39,999,-3.071,14.84,999,-5.292,999,8.6744,0.0,999.0
2012-04-01 03:29:59+00:00,20.73,999.0,318.3,26.33,-0.333,1.819,999,-2.313,999,-2.388,-0.396,999,-4.009,999,6.9113,0.0,999.0
2012-04-02 03:29:59+00:00,15.97,999.0,291.6,21.32,-0.841,3.365,999,-3.459,999,-5.174,-3.246,999,-7.07,999,15.756,0.0,999.0
2012-04-03 03:29:59+00:00,12.74,999.0,316.4,30.15,-0.225,5.371,999,-3.963,999,-5.402,-3.322,999,-7.17,999,16.708,0.0,999.0
2012-04-04 03:29:59+00:00,30.97,999.0,19.27,20.36,0.219,2.91,999,-3.426,999,-2.666,1.703,999,-6.034,999,4.7672,0.0,999.0
2012-04-05 03:29:59+00:00,32.67,999.0,322.4,53.93,3.063,6.713,999,0.633,999,1.502,4.241,999,-0.661,999,10.287,0.0,999.0
2012-04-06 03:29:59+00:00,27.66,999.0,231.1,15.07,1.783,4.36,999,0.701,999,-0.276,1.314,999,-2.419,999,11.301,0.0,999.0
2012-04-07 03:29:59+00:00,17.51,999.0,224.5,15.95,2.106,5.345,999,-1.037,999,0.054,1.872,999,-1.859,999,15.96,0.0,999.0
2012-04-08 03:29:59+00:00,21.34,999.0,77.2,23.89,2.929,7.58,999,-0.549,999,1.58,7.3,999,-1.55,999,3.9367,0.0,999.0
2012-04-09 03:29:59+00:00,14.84,999.0,137.5,35.69,3.935,6.033,999,0.884,999,3.025,5.953,999,-0.074,999,17.373,0.0,999.0
2012-04-10 03:29:59+00:00,19.78,999.0,112.5,40.79,2.801,4.909,999,1.146,999,2.008,4.158,999,0.553,999,7.8458,0.0,999.0
2012-04-11 03:29:59+00:00,9.99,999.0,171.0,49.26,4.903,7.81,999,2.004,999,2.75,4.466,999,1.285,999,20.291,0.0,999.0
2012-04-12 03:29:59+00:00,7.44,999.0,161.2,79.5,4.043,8.43,999,-0.373,999,3.219,6.515,999,-0.709,999,12.474,0.0,999.0
2012-04-13 03:29:59+00:00,13.22,999.0,110.2,56.54,4.158,7.2,999,1.437,999,3.595,6.926,999,1.151,999,3.2232,0.0,999.0
2012-04-14 03:29:59+00:00,11.32,999.0,209.1,70.4,2.51,3.792,999,1.215,999,2.427,3.728,999,1.101,999,5.92,0.0,999.0
2012-04-15 03:29:59+00:00,16.06,999.0,260.5,47.57,3.021,8.04,999,0.198,999,-0.035,1.574,999,-3.658,999,20.751,0.0,999.0
2012-04-16 03:29:59+00:00,15.28,999.0,275.8,26.93,4.439,11.63,999,-0.702,999,-1.625,1.072,999,-6.79,999,21.145,0.0,999.0
2012-04-17 03:29:59+00:00,10.63,999.0,134.3,28.65,4.375,7.92,999,-0.047,999,1.768,4.039,999,-2.467,999,20.69,0.0,999.0
2012-04-18 03:29:59+00:00,7.54,999.0,113.9,27.35,4.577,8.26,999,2.121,999,2.987,5.308,999,0.268,999,16.212,0.0,999.0
2012-04-19 03:29:59+00:00,7.49,999.0,192.8,74.6,5.214,8.47,999,3.483,999,5.068,8.28,999,3.385,999,7.1015,0.0,999.0
2012-04-20 03:29:59+00:00,14.53,999.0,68.16,40.3,5.536,8.94,999,3.188,999,4.165,6.711,999,2.443,999,11.449,0.0,999.0
2012-04-21 03:29:59+00:00,14.04,999.0,319.5,55.47,6.518,15.4,999,1.047,999,3.565,7.74,999,0.389,999,20.479,0.0,999.0
2012-04-22 03:29:59+00:00,7.15,999.0,186.3,41.39,3.637,8.19,999,0.681,999,2.284,4.656,999,0.338,999,19.746,0.0,999.0
2012-04-23 03:29:59+00:00,13.72,999.0,156.9,41.61,3.883,6.066,999,2.222,999,3.504,5.873,999,1.809,999,8.4214,0.0,999.0
2012-04-24 03:29:59+00:00,16.32,999.0,80.5,39.54,5.507,8.51,999,3.473,999,4.718,8.24,999,2.703,999,5.9744,0.0,999.0
2012-04-25 03:29:59+00:00,24.0,999.0,86.7,8.32,4.439,6.696,999,2.953,999,4.205,6.49,999,2.579,999,5.786,0.0,999.0
2012-04-26 03:29:59+00:00,18.44,999.0,109.1,20.13,5.992,7.2,999,5.06,999,5.999,7.19,999,5.061,999,6.6507,0.0,999.0
2012-04-27 03:29:59+00:00,15.01,999.0,180.0,51.95,5.509,8.02,999,2.322,999,5.527,8.05,999,2.339,999,5.6841,0.0,999.0
2012-04-28 03:29:59+00:00,21.72,999.0,124.1,36.08,4.802,7.03,999,0.618,999,4.193,6.792,999,0.632,999,12.569,0.0,999.0
2012-04-29 03:29:59+00:00,28.79,999.0,220.4,18.9,4.702,7.2,999,0.795,999,3.046,6.978,999,-0.294,999,17.577,0.0,999.0
2012-04-30 03:29:59+00:00,22.69,999.0,224.1,43.19,3.58,6.713,999,0.601,999,-0.449,2.376,999,-4.038,999,22.373,0.0,999.0
2012-05-01 03:29:59+00:00,13.61,999.0,317.1,63.32,4.195,10.86,999,-1.671,999,-1.109,3.651,999,-8.41,999,22.249,0.0,999.0
2012-05-02 03:29:59+00:00,9.44,999.0,286.2,77.5,3.424,11.95,999,-2.827,999,-0.833,7.24,999,-4.759,999,20.199,0.0,999.0
2012-05-03 03:29:59+00:00,18.97,999.0,341.3,24.86,5.978,11.93,999,0.567,999,-0.959,1.194,999,-3.327,999,24.182,0.0,999.0
2012-05-04 03:29:59+00:00,34.36,999.0,24.3,26.47,5.371,8.98,999,2.987,999,1.279,3.397,999,-0.452,999,13.412,0.0,999.0
2012-05-05 03:29:59+00:00,38.43,999.0,24.22,16.75,8.02,14.91,999,2.439,999,3.217,7.56,999,-0.917,999,17.787,0.0,999.0
2012-05-06 03:29:59+00:00,28.98,999.0,46.35,21.79,10.66,15.0,999,6.78,999,7.34,8.96,999,5.498,999,19.925,0.0,999.0
2012-05-07 03:29:59+00:00,21.2,999.0,63.6,20.14,10.56,14.14,999,7.14,999,6.299,7.45,999,3.338,999,17.906,0.0,999.0
2012-05-08 03:29:59+00:00,18.79,999.0,65.44,21.26,9.91,14.12,999,7.4,999,4.696,6.981,999,1.879,999,16.137,0.0,999.0
2012-05-09 03:29:59+00:00,8.96,999.0,137.7,86.0,7.77,10.83,999,5.444,999,3.62,5.491,999,2.065,999,22.095,0.0,999.0
2012-05-10 03:29:59+00:00,4.706,999.0,187.7,40.09,6.605,9.62,999,5.194,999,4.082,4.775,999,3.112,999,13.594,0.0,999.0
2012-05-11 03:29:59+00:00,14.55,999.0,151.8,23.81,6.627,8.49,999,5.445,999,5.707,7.18,999,4.217,999,11.106,0.0,999.0
2012-05-12 03:29:59+00:00,21.47,999.0,168.2,18.48,7.55,9.28,999,5.891,999,7.27,8.84,999,5.845,999,6.0628,0.0,999.0
2012-05-13 03:29:59+00:00,6.626,999.0,154.4,54.26,6.19,8.49,999,3.154,999,6.206,8.51,999,3.167,999,3.9783,0.0,999.0
2012-05-14 03:29:59+00:00,9.54,999.0,197.2,66.8,5.233,7.38,999,3.087,999,5.033,7.17,999,3.099,999,20.3,0.0,999.0
2012-05-15 03:29:59+00:00,11.32,999.0,229.0,50.57,5.906,10.13,999,2.953,999,4.744,7.45,999,2.832,999,21.728,0.0,999.0
2012-05-16 03:29:59+00:00,7.14,999.0,123.9,49.96,6.252,7.64,999,4.171,999,5.638,6.733,999,3.837,999,6.7964,0.0,999.0
2012-05-17 03:29:59+00:00,4.005,999.0,121.9,24.49,7.54,9.36,999,5.412,999,7.24,9.08,999,5.01,999,10.316,0.0,999.0
2012-05-18 03:29:59+00:00,18.39,999.0,178.3,28.33,7.83,9.09,999,6.813,999,7.84,9.11,999,6.741,999,6.1368,0.0,999.0
2012-05-19 03:29:59+00:00,22.15,999.0,261.3,20.41,8.76,14.34,999,5.496,999,4.602,11.55,999,0.259,999,23.3,0.0,999.0
2012-05-20 03:29:59+00:00,16.36,999.0,253.1,26.03,8.03,12.08,999,3.325,999,4.638,6.912,999,1.193,999,24.238,0.0,999.0
2012-05-21 03:29:59+00:00,13.97,999.0,317.3,27.81,9.68,16.0,999,2.222,999,1.932,4.782,999,-0.355,999,25.656,0.0,999.0
2012-05-22 03:29:59+00:00,8.69,999.0,228.0,67.56,7.45,10.84,999,3.798,999,4.159,7.01,999,0.76,999,19.4,0.0,999.0
2012-05-23 03:29:59+00:00,13.42,999.0,255.0,22.19,10.71,18.04,999,5.865,999,7.1,10.73,999,3.846,999,24.135,0.0,999.0
2012-05-24 03:29:59+00:00,10.21,999.0,171.0,81.9,8.19,9.61,999,5.035,999,7.98,9.35,999,5.049,999,3.9983,0.0,999.0
2012-05-25 03:29:59+00:00,20.34,999.0,0.289,79.6,8.05,14.29,999,3.406,999,4.66,7.98,999,2.228,999,24.772,0.0,999.0
2012-05-26 03:29:59+00:00,14.99,999.0,252.9,29.55,8.33,13.17,999,3.523,999,5.114,7.1,999,2.558,999,25.406,0.0,999.0
2012-05-27 03:29:59+00:00,10.67,999.0,232.2,25.99,7.55,9.6,999,5.864,999,6.985,9.23,999,5.253,999,11.027,0.0,999.0
2012-05-28 03:29:59+00:00,18.42,999.0,300.6,28.5,10.51,16.4,999,3.669,999,4.6,9.33,999,0.948,999,26.318,0.0,999.0
2012-05-29 03:29:59+00:00,16.66,999.0,87.3,85.8,6.817,10.11,999,3.121,999,2.598,4.527,999,-0.16,999,23.785,0.0,999.0
2012-05-30 03:29:59+00:00,16.6,999.0,344.3,40.44,7.19,191.3,999,-39.63,999,-0.012,230.6,999,-80.5,999,22.669,0.0,999.0
2012-05-31 03:29:59+00:00,12.53,999.0,320.6,54.53,9.72,18.62,999,1.439,999,3.704,7.16,999,-0.651,999,20.405,0.0,999.0
2012-06-01 03:29:59+00:00,9.1,999.0,105.6,76.1,7.48,8.74,999,5.992,999,5.122,6.365,999,3.628,999,12.596,0.0,999.0
2012-06-02 03:29:59+00:00,10.05,999.0,294.3,44.48,9.33,13.98,999,7.32,999,7.39,8.88,999,5.918,999,7.6244,0.0,999.0
2012-06-03 03:29:59+00:00,22.56,999.0,347.8,12.42,10.74,16.53,999,6.947,999,5.77,7.13,999,4.59,999,19.127,0.0,999.0
2012-06-04 03:29:59+00:00,23.37,999.0,345.1,18.93,11.36,18.22,999,6.998,999,4.843,6.821,999,2.751,999,22.96,0.0,999.0
2012-06-05 03:29:59+00:00,22.06,999.0,37.38,44.83,9.47,15.63,999,4.757,999,5.313,7.75,999,3.456,999,19.146,0.0,999.0
2012-06-06 03:29:59+00:00,29.07,999.0,57.08,14.05,8.7,11.21,999,6.931,999,6.166,7.69,999,4.775,999,7.8351,0.0,999.0
2012-06-07 03:29:59+00:00,28.62,999.0,6.11,34.88,9.09,13.77,999,6.964,999,7.42,10.38,999,5.388,999,11.809,0.0,999.0
2012-06-08 03:29:59+00:00,18.54,999.0,320.4,20.17,8.47,12.87,999,5.958,999,5.215,6.823,999,3.811,999,11.682,0.0,999.0
2012-06-09 03:29:59+00:00,16.26,999.0,333.1,26.08,9.17,16.02,999,4.01,999,4.638,6.935,999,2.996,999,15.834,0.0,999.0
2012-06-10 03:29:59+00:00,11.85,999.0,94.2,51.23,7.75,10.1,999,3.077,999,5.802,7.68,999,2.165,999,27.017,0.0,999.0
2012-06-11 03:29:59+00:00,23.56,999.0,87.7,18.57,8.22,10.12,999,5.572,999,6.46,7.62,999,5.34,999,16.473,0.0,999.0
2012-06-12 03:29:59+00:00,17.33,999.0,61.27,46.97,9.26,13.03,999,5.369,999,5.912,7.3,999,3.515,999,23.272,0.0,999.0
2012-06-13 03:29:59+00:00,5.726,999.0,96.4,69.77,9.79,12.85,999,4.916,999,6.417,9.03,999,3.323,999,27.084,0.0,999.0
2012-06-14 03:29:59+00:00,6.005,999.0,124.5,52.42,9.77,12.5,999,8.33,999,9.08,11.75,999,7.13,999,23.359,0.0,999.0
2012-06-15 03:29:59+00:00,11.97,999.0,79.0,70.5,12.74,15.9,999,8.58,999,10.25,12.96,999,7.28,999,21.455,0.0,999.0
2012-06-16 03:29:59+00:00,25.03,999.0,57.41,14.97,12.63,17.02,999,8.62,999,7.98,9.76,999,5.853,999,19.69,0.0,999.0
2012-06-17 03:29:59+00:00,20.34,999.0,63.51,36.95,10.88,14.06,999,6.016,999,5.714,7.51,999,3.913,999,24.703,0.0,999.0
2012-06-18 03:29:59+00:00,6.64,999.0,171.1,82.1,8.85,12.34,999,4.765,999,6.164,8.03,999,3.858,999,27.626,0.0,999.0
2012-06-19 03:29:59+00:00,8.52,999.0,226.5,46.14,8.63,11.46,999,5.067,999,7.72,9.71,999,4.73,999,21.53,0.0,999.0
2012-06-20 03:29:59+00:00,6.683,999.0,192.9,54.78,9.67,13.04,999,7.5,999,8.3,9.77,999,7.05,999,23.512,0.0,999.0
2012-06-21 03:29:59+00:00,9.58,999.0,193.9,27.97,9.52,11.84,999,7.63,999,8.75,10.41,999,6.935,999,13.886,0.0,999.0
2012-06-22 03:29:59+00:00,9.76,999.0,141.4,63.3,11.29,14.09,999,9.56,999,10.71,12.3,999,9.58,999,22.992,0.0,999.0
2012-06-23 03:29:59+00:00,12.13,999.0,43.56,94.7,14.36,18.96,999,10.84,999,11.35,12.75,999,8.54,999,26.113,0.0,999.0
2012-06-24 03:29:59+00:00,7.46,999.0,233.5,72.2,13.79,17.47,999,9.09,999,10.08,12.12,999,8.0,999,26.782,0.0,999.0
2012-06-25 03:29:59+00:00,9.76,999.0,184.5,47.65,11.34,13.65,999,8.99,999,10.81,12.32,999,8.66,999,18.475,0.0,999.0
2012-06-26 03:29:59+00:00,23.56,999.0,104.0,10.99,10.82,11.22,999,10.23,999,10.84,11.24,999,10.25,999,4.707,0.0,999.0
2012-06-27 03:29:59+00:00,13.86,999.0,101.7,13.4,11.85,12.94,999,10.9,999,11.87,12.96,999,10.93,999,11.266,0.0,999.0
2012-06-28 03:29:59+00:00,26.53,999.0,119.6,30.37,12.45,13.87,999,10.65,999,12.47,13.89,999,10.67,999,3.0022,0.0,999.0
2012-06-29 03:29:59+00:00,9.56,999.0,146.3,45.36,11.78,18.77,999,8.74,999,11.8,18.79,999,8.76,999,7.2067,0.0,999.0
2012-06-30 03:29:59+00:00,13.89,999.0,202.0,29.27,12.68,14.21,999,11.5,999,12.7,14.18,999,11.52,999,11.124,0.0,999.0
2012-07-01 03:29:59+00:00,8.53,999.0,205.6,38.32,13.71,16.67,999,12.39,999,13.68,16.02,999,12.41,999,7.0201,0.0,999.0
2012-07-02 03:29:59+00:00,8.62,999.0,211.3,33.8,13.31,16.82,999,11.37,999,13.14,16.57,999,11.38,999,21.385,0.0,999.0
2012-07-03 03:29:59+00:00,5.651,999.0,174.1,49.59,12.95,15.29,999,11.29,999,12.97,15.31,999,11.31,999,9.7118,0.0,999.0
2012-07-04 03:29:59+00:00,4.772,999.0,121.0,34.57,13.81,15.88,999,12.12,999,13.83,15.9,999,12.13,999,6.1691,0.0,999.0
2012-07-05 03:29:59+00:00,4.919,999.0,186.2,43.93,13.82,17.53,999,12.08,999,13.84,17.55,999,12.09,999,10.315,0.0,999.0
2012-07-06 03:29:59+00:00,9.78,999.0,135.9,30.92,12.68,14.03,999,11.4,999,12.7,14.05,999,11.41,999,11.665,0.0,999.0
2012-07-07 03:29:59+00:00,23.32,999.0,82.0,15.43,14.33,16.48,999,12.53,999,14.35,16.5,999,12.55,999,4.7722,0.0,999.0
2012-07-08 03:29:59+00:00,18.66,999.0,170.9,61.29,13.71,16.24,999,13.07,999,13.73,16.26,999,13.08,999,8.602,0.0,999.0
2012-07-09 03:29:59+00:00,6.542,999.0,179.0,44.79,13.84,14.96,999,13.23,999,13.86,14.98,999,13.25,999,8.5403,0.0,999.0
2012-07-10 03:29:59+00:00,14.09,999.0,243.9,25.79,15.1,18.56,999,12.36,999,14.73,17.05,999,12.38,999,23.956,0.0,999.0
2012-07-11 03:29:59+00:00,14.12,999.0,245.3,25.9,15.93,20.94,999,11.96,999,14.42,16.92,999,11.98,999,26.213,0.0,999.0
2012-07-12 03:29:59+00:00,14.9,999.0,261.4,24.99,16.98,25.08,999,11.67,999,12.63,17.45,999,7.55,999,26.267,0.8,999.0
2012-07-13 03:29:59+00:00,6.429,999.0,214.1,63.39,14.71,18.29,999,9.45,999,13.94,16.87,999,9.47,999,18.769,0.0,999.0
2012-07-14 03:29:59+00:00,12.27,999.0,247.7,34.64,15.65,19.36,999,12.14,999,15.0,17.8,999,12.15,999,18.213,0.0,999.0
2012-07-15 03:29:59+00:00,4.723,999.0,215.7,90.8,12.53,14.75,999,9.38,999,12.39,14.26,999,9.4,999,7.2987,4.4,999.0
2012-07-16 03:29:59+00:00,6.7,999.0,145.6,83.1,14.06,17.22,999,10.74,999,12.54,14.13,999,10.75,999,25.721,0.0,999.0
2012-07-17 03:29:59+00:00,10.92,999.0,185.3,20.5,15.82,17.94,999,14.31,999,14.97,16.2,999,14.32,999,13.796,0.0,999.0
2012-07-18 03:29:59+00:00,9.76,999.0,107.0,45.12,15.32,16.52,999,14.47,999,15.34,16.54,999,14.48,999,4.7749,0.4,999.0
2012-07-19 03:29:59+00:00,10.54,999.0,182.8,61.35,15.37,16.59,999,14.23,999,15.39,16.6,999,14.25,999,4.7909,0.9,999.0
2012-07-20 03:29:59+00:00,9.36,999.0,227.5,30.98,15.63,18.33,999,13.07,999,15.64,18.36,999,13.08,999,12.269,0.0,999.0
2012-07-21 03:29:59+00:00,16.3,999.0,311.0,37.99,17.27,22.94,999,10.9,999,12.98,15.86,999,9.91,999,20.848,0.0,999.0
2012-07-22 03:29:59+00:00,13.25,999.0,256.2,41.22,14.74,20.23,999,8.4,999,12.71,15.25,999,8.42,999,25.727,0.0,999.0
2012-07-23 03:29:59+00:00,15.5,999.0,257.2,26.9,16.27,20.85,999,12.04,999,15.06,17.46,999,12.06,999,25.629,0.0,999.0
2012-07-24 03:29:59+00:00,6.657,999.0,219.8,21.77,15.76,19.24,999,13.57,999,15.34,17.62,999,13.59,999,18.952,0.0,999.0
2012-07-25 03:29:59+00:00,9.71,999.0,172.1,61.36,16.08,18.77,999,13.8,999,15.49,17.44,999,13.81,999,22.255,0.0,999.0
2012-07-26 03:29:59+00:00,22.85,999.0,129.2,19.97,15.38,16.56,999,14.24,999,15.4,16.58,999,14.26,999,10.763,0.0,999.0
2012-07-27 03:29:59+00:00,19.11,999.0,112.4,67.11,15.99,17.37,999,14.77,999,16.01,17.4,999,14.78,999,8.187,6.4,999.0
2012-07-28 03:29:59+00:00,10.87,999.0,201.9,85.0,16.57,20.55,999,13.42,999,16.21,18.91,999,13.43,999,15.577,4.7,999.0
2012-07-29 03:29:59+00:00,14.72,999.0,37.06,38.99,18.06,25.14,999,14.96,999,17.22,19.81,999,14.98,999,15.057,0.5,999.0
2012-07-30 03:29:59+00:00,7.59,999.0,162.8,34.43,15.53,16.83,999,14.09,999,15.55,16.85,999,14.11,999,8.554,0.0,999.0
2012-07-31 03:29:59+00:00,12.07,999.0,75.5,31.06,15.74,16.59,999,14.9,999,15.76,16.61,999,14.92,999,5.2454,2.6,999.0
2012-08-01 03:29:59+00:00,10.99,999.0,339.2,26.79,18.41,24.4,999,14.06,999,16.6,18.54,999,14.07,999,13.791,0.0,999.0
2012-08-02 03:29:59+00:00,5.502,999.0,141.3,72.4,16.9,20.04,999,12.02,999,16.34,19.01,999,12.04,999,22.115,0.3,999.0
2012-08-03 03:29:59+00:00,11.54,999.0,170.9,45.88,17.28,19.2,999,15.7,999,17.3,19.22,999,15.71,999,8.5632,3.5,999.0
2012-08-04 03:29:59+00:00,14.63,999.0,230.7,26.44,18.44,22.9,999,16.72,999,18.34,21.84,999,16.73,999,14.305,9.6,999.0
2012-08-05 03:29:59+00:00,10.34,999.0,239.3,44.45,17.92,20.97,999,15.76,999,17.94,20.99,999,15.78,999,11.18,0.1,999.0
2012-08-06 03:29:59+00:00,12.75,999.0,96.4,56.36,16.42,18.35,999,13.74,999,15.99,18.05,999,13.75,999,10.596,0.0,999.0
2012-08-07 03:29:59+00:00,15.23,999.0,197.6,12.72,17.6,18.62,999,16.33,999,17.62,18.64,999,16.35,999,5.8337,0.0,999.0
2012-08-08 03:29:59+00:00,6.92,999.0,213.1,38.03,18.13,19.08,999,17.3,999,18.15,19.1,999,17.32,999,6.9551,0.1,999.0
2012-08-09 03:29:59+00:00,12.04,999.0,213.4,41.55,17.9,18.92,999,16.57,999,17.92,18.94,999,16.59,999,5.0531,11.5,999.0
2012-08-10 03:29:59+00:00,10.51,999.0,267.1,45.52,18.04,22.8,999,13.57,999,17.71,21.26,999,13.59,999,19.499,0.1,999.0
2012-08-11 03:29:59+00:00,7.01,999.0,241.4,60.49,18.37,23.45,999,15.35,999,18.26,22.18,999,15.37,999,15.586,0.1,999.0
2012-08-12 03:29:59+00:00,5.826,999.0,188.0,46.95,18.36,21.18,999,16.23,999,18.38,21.2,999,16.25,999,12.691,0.0,999.0
2012-08-13 03:29:59+00:00,12.49,999.0,94.1,27.04,18.59,20.34,999,17.36,999,18.61,20.36,999,17.37,999,10.052,0.4,999.0
2012-08-14 03:29:59+00:00,10.98,999.0,210.1,49.84,19.22,20.85,999,17.84,999,19.24,20.87,999,17.86,999,7.5734,0.8,999.0
2012-08-15 03:29:59+00:00,13.0,999.0,252.9,45.48,20.37,24.65,999,17.78,999,20.34,24.35,999,17.79,999,10.674,11.5,999.0
2012-08-16 03:29:59+00:00,17.89,999.0,80.7,27.29,16.94,19.1,999,14.97,999,16.14,17.94,999,14.98,999,10.259,0.0,999.0
2012-08-17 03:29:59+00:00,26.05,999.0,114.2,8.1,17.28,18.16,999,16.6,999,16.29,17.29,999,14.93,999,8.0641,0.0,999.0
2012-08-18 03:29:59+00:00,34.59,999.0,93.6,15.3,16.59,17.49,999,15.93,999,16.09,17.19,999,13.49,999,2.8873,36.3,999.0
2012-08-19 03:29:59+00:00,26.98,999.0,76.7,25.37,17.3,18.55,999,16.32,999,17.32,18.58,999,16.33,999,6.5169,0.9,999.0
2012-08-20 03:29:59+00:00,21.13,999.0,112.1,14.78,17.18,18.05,999,15.99,999,17.2,18.08,999,16.0,999,5.1635,0.4,999.0
2012-08-21 03:29:59+00:00,11.98,999.0,119.1,27.84,18.56,19.5,999,17.54,999,18.58,19.52,999,17.56,999,6.7604,3.9,999.0
2012-08-22 03:29:59+00:00,9.93,999.0,243.5,37.99,19.75,23.01,999,18.17,999,19.77,23.03,999,18.18,999,12.657,1.9,999.0
2012-08-23 03:29:59+00:00,12.81,999.0,264.8,34.18,19.82,25.41,999,15.66,999,17.91,20.86,999,14.6,999,19.393,0.0,999.0
2012-08-24 03:29:59+00:00,9.57,999.0,240.0,47.36,18.08,22.07,999,12.98,999,17.59,20.87,999,13.0,999,15.859,0.0,999.0
2012-08-25 03:29:59+00:00,15.9,999.0,233.3,54.88,19.33,23.25,999,15.09,999,18.92,21.73,999,15.1,999,15.497,0.0,999.0
2012-08-26 03:29:59+00:00,13.33,999.0,338.9,51.86,17.11,23.4,999,13.65,999,13.38,17.44,999,8.97,999,19.322,0.0,999.0
2012-08-27 03:29:59+00:00,19.66,999.0,235.9,16.33,19.18,22.38,999,16.97,999,17.21,18.89,999,15.49,999,19.222,0.0,999.0
2012-08-28 03:29:59+00:00,16.55,999.0,252.1,18.11,20.39,25.9,999,17.44,999,19.28,21.67,999,17.46,999,18.348,0.0,999.0
2012-08-29 03:29:59+00:00,17.19,999.0,223.1,25.0,19.14,22.06,999,16.67,999,18.71,20.84,999,16.69,999,15.292,0.1,999.0
2012-08-30 03:29:59+00:00,20.75,999.0,256.2,23.08,18.61,23.21,999,13.65,999,15.4,20.24,999,9.37,999,19.071,3.0,999.0
2012-08-31 03:29:59+00:00,13.77,999.0,255.3,25.82,15.93,22.24,999,11.04,999,14.21,17.71,999,11.05,999,16.213,1.9,999.0
2012-09-01 03:29:59+00:00,9.42,999.0,230.6,29.74,15.57,18.01,999,13.37,999,15.57,18.03,999,13.38,999,7.3559,3.9,999.0
2012-09-02 03:29:59+00:00,24.62,999.0,270.0,58.23,15.85,20.15,999,11.39,999,14.03,18.98,999,10.53,999,16.56,14.6,999.0
2012-09-03 03:29:59+00:00,12.19,999.0,320.0,49.25,13.34,21.23,999,5.523,999,7.9,11.07,999,1.533,999,19.918,0.0,999.0
2012-09-04 03:29:59+00:00,7.11,999.0,61.34,55.63,12.34,17.73,999,7.89,999,9.87,13.3,999,7.9,999,19.626,0.0,999.0
2012-09-05 03:29:59+00:00,14.2,999.0,351.6,26.08,15.31,22.27,999,8.81,999,10.81,14.32,999,6.05,999,19.683,0.0,999.0
2012-09-06 03:29:59+00:00,7.16,999.0,290.7,76.3,16.51,23.46,999,12.54,999,13.48,16.37,999,11.04,999,14.67,1.0,999.0
2012-09-07 03:29:59+00:00,30.52,999.0,90.5,32.41,14.71,16.1,999,13.29,999,14.51,15.43,999,13.3,999,7.0898,7.9,999.0
2012-09-08 03:29:59+00:00,17.65,999.0,350.1,84.1,16.35,20.54,999,12.04,999,16.11,19.95,999,12.05,999,10.471,0.7,999.0
2012-09-09 03:29:59+00:00,9.69,999.0,293.5,50.9,14.75,20.79,999,11.12,999,13.87,16.8,999,11.15,999,11.977,0.0,999.0
2012-09-10 03:29:59+00:00,13.61,999.0,160.2,34.41,16.78,18.76,999,12.19,999,16.79,18.78,999,12.21,999,9.7769,0.0,999.0
2012-09-11 03:29:59+00:00,24.05,999.0,153.2,15.35,17.68,18.28,999,17.05,999,17.7,18.3,999,17.07,999,5.8312,0.2,999.0
2012-09-12 03:29:59+00:00,25.44,999.0,317.2,74.8,16.41,20.44,999,10.79,999,16.11,18.86,999,10.8,999,8.3134,57.6,999.0
2012-09-13 03:29:59+00:00,12.55,999.0,289.7,35.22,14.91,21.17,999,9.54,999,13.1,17.04,999,9.56,999,17.299,0.0,999.0
2012-09-14 03:29:59+00:00,12.44,999.0,242.8,45.8,15.59,19.35,999,10.25,999,15.08,17.85,999,10.27,999,17.143,0.0,999.0
2012-09-15 03:29:59+00:00,13.89,999.0,248.4,13.64,16.75,21.36,999,14.72,999,16.34,19.08,999,14.73,999,14.255,0.0,999.0
2012-09-16 03:29:59+00:00,11.65,999.0,148.0,29.15,15.54,17.45,999,14.63,999,15.25,16.52,999,14.12,999,9.685,0.0,999.0
2012-09-17 03:29:59+00:00,27.53,999.0,112.5,49.47,15.4,16.14,999,13.1,999,15.42,16.16,999,13.11,999,2.2022,7.1,999.0
2012-09-18 03:29:59+00:00,17.56,999.0,270.8,18.49,13.91,18.67,999,10.42,999,11.92,14.78,999,10.43,999,12.269,0.2,999.0